West Plains, MO

11:36 AM CDT on July 28, 2017 (GMT -0500)
West Plains Municipal

Weather History for KUNO - December, 2013

Change the Weather History Date:

Monday, December 23, 2013

  Actual Average Record
Temperature  
Mean Temperature 26 °F 35 °F  
Max Temperature 33 °F 45 °F 68 °F (1996)
Min Temperature 19 °F 24 °F -12 °F (1989)
Degree Days  
Heating Degree Days 39 30  
Month to date heating degree days 581 647  
Since 1 July heating degree days 1493 1499  
Cooling Degree Days 0 0  
Month to date cooling degree days 0 0  
Year to date cooling degree days 1073 1354  
Moisture  
Dew Point 16 °F    
Average Humidity 67    
Maximum Humidity 84    
Minimum Humidity 49    
Precipitation  
Precipitation T in 0.10 in 2.20 in (1979)
Month to date precipitation 2.31 3.02  
Year to date precipitation 54.20 45.60  
Sea Level Pressure  
Sea Level Pressure 30.47 in    
Wind  
Wind Speed 8 mph (NW)    
Max Wind Speed 15 mph    
Max Gust Speed 23 mph    
Visibility 10 miles    
Events      
T = Trace of Precipitation, MM = Missing Value Source: NWS Daily Summary

Daily Weather History Graph

Daily Weather History Graph

Search for Another Location

Airport or City:

Trip Planner

Search our weather history database for the weather conditions in past years. The results will help you decide how hot, cold, wet, or windy it might be!

Date:

Astronomy

Dec. 23, 2013 Rise Set
Actual Time 7:17 AM CST 4:55 PM CST
Civil Twilight 6:48 AM CST 5:24 PM CST
Nautical Twilight 6:16 AM CST 5:57 PM CST
Astronomical Twilight 5:44 AM CST 6:29 PM CST
Moon 10:57 PM CST (12/23) 10:51 AM CST (12/23)
Length of Visible Light 10h 36m
Length of Day
9h 38m
Waning Gibbous, 68% of the Moon is Illuminated
Dec 23
Waning Gibbous
Dec 25
Last Quarter
Jan 1
New
Jan 7
First Quarter
Jan 15
Full

Hourly Weather History & Observations

Time (CST) Temp. Windchill Dew Point Humidity Pressure Visibility Wind Dir Wind Speed Gust Speed Precip Events Conditions
12:46 AM 26.1 °F 17.6 °F 21.0 °F 81% 30.29 in 10.0 mi NNW 8.1 mph - N/A   Overcast
12:53 AM 26.1 °F 16.8 °F 21.0 °F 81% 30.32 in 10.0 mi NW 9.2 mph - N/A   Overcast
1:53 AM 26.1 °F 15.6 °F 19.9 °F 78% 30.36 in 10.0 mi NNW 11.5 mph 17.3 mph N/A   Overcast
2:32 AM 26.1 °F 18.4 °F 19.9 °F 78% 30.33 in 10.0 mi NW 6.9 mph - N/A   Overcast
2:53 AM 25.0 °F 13.1 °F 19.0 °F 78% 30.38 in 10.0 mi WNW 13.8 mph - N/A   Overcast
3:01 AM 25.0 °F 15.5 °F 18.0 °F 75% 30.34 in 10.0 mi NW 9.2 mph - N/A   Overcast
3:53 AM 24.1 °F 15.2 °F 17.1 °F 75% 30.39 in 10.0 mi NW 8.1 mph - N/A   Overcast
4:53 AM 24.1 °F 16.0 °F 17.1 °F 75% 30.40 in 10.0 mi WNW 6.9 mph - N/A   Overcast
5:53 AM 23.0 °F 17.0 °F 17.1 °F 78% 30.42 in 10.0 mi NNW 4.6 mph - N/A   Overcast
6:53 AM 23.0 °F 14.7 °F 17.1 °F 78% 30.45 in 10.0 mi NW 6.9 mph - N/A   Overcast
7:53 AM 21.9 °F 13.4 °F 17.1 °F 82% 30.46 in 10.0 mi NW 6.9 mph - N/A   Mostly Cloudy
8:15 AM 23.0 °F 13.9 °F 15.1 °F 72% 30.44 in 10.0 mi North 8.1 mph - N/A   Partly Cloudy
8:53 AM 23.0 °F 11.7 °F 15.1 °F 72% 30.51 in 10.0 mi NW 11.5 mph - N/A   Partly Cloudy
9:53 AM 26.1 °F 16.8 °F 14.0 °F 60% 30.54 in 10.0 mi North 9.2 mph - N/A   Clear
10:53 AM 28.0 °F 20.8 °F 15.1 °F 58% 30.54 in 10.0 mi NNW 6.9 mph - N/A   Clear
11:53 AM 30.0 °F 25.2 °F 15.1 °F 54% 30.51 in 10.0 mi NNW 4.6 mph - N/A   Clear
12:53 PM 32.0 °F 24.8 °F 15.1 °F 50% 30.48 in 10.0 mi North 8.1 mph - N/A   Clear
1:53 PM 32.0 °F 25.6 °F 15.1 °F 50% 30.48 in 10.0 mi NNW 6.9 mph - N/A   Mostly Cloudy
2:53 PM 30.9 °F 23.5 °F 15.1 °F 52% 30.49 in 10.0 mi NW 8.1 mph - N/A   Overcast
3:53 PM 28.9 °F 22.8 °F 15.1 °F 56% 30.51 in 10.0 mi WNW 5.8 mph - N/A   Overcast
4:53 PM 28.0 °F 20.0 °F 17.1 °F 63% 30.52 in 10.0 mi NW 8.1 mph - N/A   Overcast
5:53 PM 26.1 °F 18.4 °F 17.1 °F 69% 30.53 in 10.0 mi NW 6.9 mph - 0.00 in   Overcast
6:53 PM 24.1 °F 15.2 °F 16.0 °F 71% 30.54 in 10.0 mi NNW 8.1 mph - N/A   Overcast
7:53 PM 21.0 °F 12.4 °F 15.1 °F 78% 30.57 in 10.0 mi NNW 6.9 mph - N/A   Clear
8:53 PM 19.0 °F 13.9 °F 15.1 °F 85% 30.56 in 10.0 mi NW 3.5 mph - N/A   Clear
9:53 PM 19.0 °F 10.0 °F 14.0 °F 81% 30.57 in 10.0 mi NW 6.9 mph - N/A   Clear
10:13 PM 19.0 °F 8.2 °F 15.1 °F 85% 30.53 in 10.0 mi NW 9.2 mph - N/A   Mostly Cloudy
10:53 PM 19.0 °F 9.0 °F 14.0 °F 81% 30.58 in 10.0 mi NNW 8.1 mph - N/A   Overcast
11:53 PM 19.0 °F 11.1 °F 12.9 °F 77% 30.58 in 10.0 mi NW 5.8 mph - N/A   Overcast